SCP
0 0 0 0 0 0 0 0 0 0 0 0 0 0 0 0 0 0 0 0 0 0
0 0 0 0 0 0 0 0 0 0 0 0 0 0 0 0 0 0 0 0 0 0
0 0 0 0 -0 0 0 -0 -0 0 0 0 0 0 0 0 0 -0 0 0 0 0
0 0 0 0 -0 0 -0 -0 -0 0 0 0 0 0 0 -0 0 0 0 0 0 -0
0 -0 0 0 0 0 -0 -0 -0 -0 0 0 0 0 0 0 -0 0 -0 -0 -0 -0
0 0 0 0 -0 -0 -0 -0 -0 -0 -0 -0 0 0 0 -0 -0 -0 0 0 -0 -0
0 0 0 0 -0 -0 -0 -0 -0 -0 -0 -0 0 0 0 0 0 0 0 0 0 0
0 0 -0 -0 -0 -0 -0 -0 -0 -0 -0 0 0 -0 -0 0 0 -0 0 0 0 0
0 0 -0 -0 -0 -0 -0 -0 -0 -0 -0 0 0 -0 -0 -0 -0 -0 -0 -0 0 0
0 0 -0 -0 -0 -0 0 0 0 -0 -0 -0 0 -0 0 -0 -0 -0 -0 -0 -0 0
0 0 -0 -0 -0 0 -0 0 -0 0 -0 -0 0 -0 -0 -0 0 0 0 0 0 -0
0 0 0 -0 0 -0 0 -0 -0 -0 -0 -0 -0 -0 -0 -0 0 0 0 0 0 0
0 0 0 0 0 0 0 -0 0 0 0 0 0 -0 -0 -0 -0 -0 0 0 -0 -0
0 0 0 0 0 0 0 -0 -0 -0 0 0 -0 0 -0 0 0 0 0 0 0 0
Wind_Speed_500mb
6 6 4 2 2 7 5 6 3 3 7 9 10 9 9 8 19 32 41 38 37 29
9 7 4 3 3 4 7 7 3 4 4 5 5 9 12 12 16 30 29 32 32 28
12 9 6 4 4 7 9 7 6 3 5 6 10 12 14 13 26 34 39 38 21 31
16 12 9 8 8 8 9 9 7 6 6 10 16 6 9 18 18 31 34 30 24 22
19 14 10 8 8 6 10 9 8 8 8 11 14 14 21 24 34 36 30 35 29 34
20 15 11 8 6 4 6 14 17 14 12 20 17 19 20 30 34 39 35 37 37 43
22 17 10 6 8 12 12 11 17 17 26 29 23 20 34 31 31 33 38 39 39 36
24 16 10 11 11 16 19 24 28 30 29 22 23 25 30 39 32 38 40 32 37 32
23 14 14 15 14 29 31 31 32 31 26 17 25 27 30 40 40 44 33 30 30 38
27 21 19 21 26 33 36 34 33 31 26 24 31 31 28 33 48 38 29 27 30 29
33 25 25 28 33 33 32 30 27 22 25 25 33 31 30 31 36 36 30 28 27 24
39 34 33 38 37 35 30 30 27 22 24 25 31 33 29 29 39 36 31 30 29 30
45 35 36 42 40 35 31 25 27 25 26 27 33 33 36 30 36 38 36 31 36 34
49 42 39 42 39 34 35 33 30 33 35 30 34 35 33 28 31 38 47 46 43 42
Wind_Direction_500mb
195 178 167 232 178 191 185 161 204 339 41 46 116 130 110 117 115 176 183 171 167 214
196 177 164 232 197 200 201 197 159 109 42 54 167 112 132 144 140 143 147 145 151 156
199 180 185 190 212 191 199 202 187 140 73 99 137 108 126 150 146 150 146 153 162 170
191 193 195 202 225 220 214 185 202 170 141 134 148 145 135 127 149 180 172 165 152 149
189 203 200 205 218 207 198 200 189 184 160 162 165 132 120 128 134 138 153 173 154 149
204 206 214 216 206 232 248 206 194 187 175 163 154 154 127 134 132 139 141 149 153 156
209 205 219 193 182 194 202 180 162 162 156 152 139 130 145 147 133 146 139 141 152 155
204 207 192 169 187 200 167 146 139 141 149 154 148 146 152 151 143 148 146 141 154 155
194 190 173 167 161 155 143 138 139 140 141 138 161 149 147 155 154 148 145 141 142 146
180 183 174 165 159 153 143 142 147 146 146 147 141 145 152 157 168 163 162 164 157 164
183 183 183 174 161 159 159 154 157 155 155 157 149 149 156 159 164 172 176 178 179 186
187 188 183 178 177 171 172 166 170 177 168 171 175 167 174 181 187 181 180 180 175 183
185 191 185 185 182 177 174 184 183 186 186 174 170 163 177 183 188 190 179 164 165 165
184 190 190 183 185 187 188 189 186 174 166 159 164 163 157 164 176 171 166 159 153 151
Wind_Speed_850mb
6 6 4 2 2 7 5 6 3 3 7 9 10 9 9 8 19 32 41 38 37 29
9 7 4 3 3 4 7 7 3 4 4 5 5 9 12 12 16 30 29 32 32 28
12 9 6 4 4 7 9 7 6 3 5 6 10 12 14 13 26 34 39 38 21 31
16 12 9 8 8 8 9 9 7 6 6 10 16 6 9 18 18 31 34 30 24 22
19 14 10 8 8 6 10 9 8 8 8 11 14 14 21 24 34 36 30 35 29 34
20 15 11 8 6 4 6 14 17 14 12 20 17 19 20 30 34 39 35 37 37 43
22 17 10 6 8 12 12 11 17 17 26 29 23 20 34 31 31 33 38 39 39 36
24 16 10 11 11 16 19 24 28 30 29 22 23 25 30 39 32 38 40 32 37 32
23 14 14 15 14 29 31 31 32 31 26 17 25 27 30 40 40 44 33 30 30 38
27 21 19 21 26 33 36 34 33 31 26 24 31 31 28 33 48 38 29 27 30 29
33 25 25 28 33 33 32 30 27 22 25 25 33 31 30 31 36 36 30 28 27 24
39 34 33 38 37 35 30 30 27 22 24 25 31 33 29 29 39 36 31 30 29 30
45 35 36 42 40 35 31 25 27 25 26 27 33 33 36 30 36 38 36 31 36 34
49 42 39 42 39 34 35 33 30 33 35 30 34 35 33 28 31 38 47 46 43 42
Wind_Direction_850mb
195 178 167 232 178 191 185 161 204 339 41 46 116 130 110 117 115 176 183 171 167 214
196 177 164 232 197 200 201 197 159 109 42 54 167 112 132 144 140 143 147 145 151 156
199 180 185 190 212 191 199 202 187 140 73 99 137 108 126 150 146 150 146 153 162 170
191 193 195 202 225 220 214 185 202 170 141 134 148 145 135 127 149 180 172 165 152 149
189 203 200 205 218 207 198 200 189 184 160 162 165 132 120 128 134 138 153 173 154 149
204 206 214 216 206 232 248 206 194 187 175 163 154 154 127 134 132 139 141 149 153 156
209 205 219 193 182 194 202 180 162 162 156 152 139 130 145 147 133 146 139 141 152 155
204 207 192 169 187 200 167 146 139 141 149 154 148 146 152 151 143 148 146 141 154 155
194 190 173 167 161 155 143 138 139 140 141 138 161 149 147 155 154 148 145 141 142 146
180 183 174 165 159 153 143 142 147 146 146 147 141 145 152 157 168 163 162 164 157 164
183 183 183 174 161 159 159 154 157 155 155 157 149 149 156 159 164 172 176 178 179 186
187 188 183 178 177 171 172 166 170 177 168 171 175 167 174 181 187 181 180 180 175 183
185 191 185 185 182 177 174 184 183 186 186 174 170 163 177 183 188 190 179 164 165 165
184 190 190 183 185 187 188 189 186 174 166 159 164 163 157 164 176 171 166 159 153 151